Location: St. Louis
(38.6270°N, 90.1994°W)
Time: 04:32:03
(UTC-06:00)

Courier 1B - Pass Details

Date: 02 December 2021
Orbit: 962 x 1209 km, 28.3° (Epoch: 19 January)

Event Time Altitude Azimuth Distance (km) Brightness Sun altitude
Rises 18:23:48 0° 248° (WSW) 3,968 12.2 -19.9°
Reaches altitude 10° 18:26:54 10° 240° (WSW) 2,970 11.1 -20.4°
Maximum altitude 18:33:22 35° 177° (S) 1,636 8.7 -21.7°
Enters shadow 18:36:40 23° 131° (SE) 2,038 8.8 -22.3°
